Time,TemperatureF,DewpointF,PressureIn,WindDirection,WindDirectionDegrees,WindSpeedMPH,WindSpeedGustMPH,Humidity,HourlyPrecipIn,Conditions,Clouds,dailyrainin,SoftwareType,DateUTC
2013-05-05 00:01:00,49.1,49.1,29.96,West,270,4.9,4.9,100,0.12,,---,0.00,VWS V14.00,2013-05-05 04:01:00,
2013-05-05 00:06:00,49.1,49.1,29.95,WSW,248,0.0,4.9,100,0.12,,---,0.00,VWS V14.00,2013-05-05 04:06:00,
2013-05-05 00:11:00,49.1,49.1,29.95,ENE,68,0.0,0.0,100,0.12,,---,0.00,VWS V14.00,2013-05-05 04:11:00,
2013-05-05 00:16:00,49.1,49.1,29.95,SSW,202,6.0,6.0,100,0.12,,---,0.00,VWS V14.00,2013-05-05 04:16:00,
2013-05-05 00:21:00,49.1,49.1,29.96,SSE,158,4.0,4.0,100,0.12,,---,0.00,VWS V14.00,2013-05-05 04:21:00,
2013-05-05 00:26:00,49.1,49.1,29.96,SW,225,0.0,4.0,100,0.12,,---,0.00,VWS V14.00,2013-05-05 04:26:00,
2013-05-05 00:31:00,49.1,49.1,29.97,SW,225,6.0,6.0,100,0.10,,---,0.00,VWS V14.00,2013-05-05 04:31:00,
2013-05-05 00:36:00,49.2,49.2,29.97,SE,135,2.0,6.0,100,0.10,,---,1.69,VWS V14.00,2013-05-05 04:36:00,
2013-05-05 00:41:00,49.2,49.2,29.97,WSW,248,0.0,0.0,100,0.04,,---,0.00,VWS V14.00,2013-05-05 04:41:00,
2013-05-05 00:46:00,49.2,49.2,29.96,SW,225,0.0,1.1,100,0.04,,---,0.00,VWS V14.00,2013-05-05 04:46:00,
2013-05-05 00:52:00,49.2,49.2,29.95,SE,135,0.0,2.4,100,0.02,,---,0.00,VWS V14.00,2013-05-05 04:52:00,
2013-05-05 00:57:00,49.2,49.2,29.95,ESE,112,0.0,2.4,100,0.04,,---,0.02,VWS V14.00,2013-05-05 04:57:00,
2013-05-05 01:02:00,49.2,49.2,29.95,NW,315,0.6,0.6,100,0.04,,---,0.04,VWS V14.00,2013-05-05 05:02:00,
2013-05-05 01:07:00,49.2,49.2,29.95,West,270,0.0,3.1,100,0.04,,---,0.04,VWS V14.00,2013-05-05 05:07:00,
2013-05-05 01:12:00,49.1,49.1,29.96,South,180,3.8,3.8,100,0.06,,---,0.06,VWS V14.00,2013-05-05 05:12:00,
2013-05-05 01:17:00,49.2,49.2,29.96,NNW,338,0.0,3.8,100,0.06,,---,0.06,VWS V14.00,2013-05-05 05:17:00,
2013-05-05 01:22:00,49.1,49.1,29.95,WNW,292,0.0,2.6,100,0.08,,---,0.08,VWS V14.00,2013-05-05 05:22:00,
2013-05-05 01:27:00,49.2,49.2,29.93,South,180,2.4,2.6,100,0.08,,---,0.08,VWS V14.00,2013-05-05 05:27:00,
2013-05-05 01:32:00,49.2,49.2,29.94,South,180,3.5,3.5,100,0.08,,---,0.08,VWS V14.00,2013-05-05 05:32:00,
2013-05-05 01:37:00,49.1,49.1,29.93,NNW,338,0.0,3.5,100,0.10,,---,0.10,VWS V14.00,2013-05-05 05:37:00,
2013-05-05 01:42:00,49.2,49.2,29.93,NNW,338,5.5,5.5,100,0.10,,---,0.10,VWS V14.00,2013-05-05 05:42:00,
2013-05-05 01:47:00,49.2,49.2,29.93,NNW,338,0.0,5.5,100,0.10,,---,0.10,VWS V14.00,2013-05-05 05:47:00,
2013-05-05 01:52:00,49.2,49.2,29.92,North,0,0.0,1.3,100,0.10,,---,0.10,VWS V14.00,2013-05-05 05:52:00,
2013-05-05 01:57:00,49.2,49.2,29.91,ESE,112,1.5,2.6,100,0.10,,---,0.10,VWS V14.00,2013-05-05 05:57:00,
2013-05-05 02:02:00,49.2,49.2,29.91,SE,135,0.8,0.8,100,0.06,,---,0.10,VWS V14.00,2013-05-05 06:02:00,
2013-05-05 02:07:00,49.2,49.2,29.92,NNE,22,10.7,10.7,100,0.06,,---,0.10,VWS V14.00,2013-05-05 06:07:00,
2013-05-05 02:12:00,49.2,49.2,29.92,ENE,68,0.0,4.9,100,0.06,,---,0.12,VWS V14.00,2013-05-05 06:12:00,
2013-05-05 02:17:00,49.2,49.2,29.91,ENE,68,0.0,4.9,100,0.06,,---,0.12,VWS V14.00,2013-05-05 06:17:00,
2013-05-05 02:22:00,49.2,49.2,29.90,WSW,248,0.0,6.4,100,0.04,,---,0.12,VWS V14.00,2013-05-05 06:22:00,
2013-05-05 02:27:00,49.2,49.2,29.90,WSW,248,7.3,7.3,100,0.06,,---,0.14,VWS V14.00,2013-05-05 06:27:00,
2013-05-05 02:32:00,49.2,49.2,29.90,ENE,68,1.5,1.5,100,0.06,,---,0.14,VWS V14.00,2013-05-05 06:32:00,
2013-05-05 02:37:00,49.2,49.2,29.90,SSW,202,3.5,3.5,100,0.08,,---,0.16,VWS V14.00,2013-05-05 06:37:00,
2013-05-05 02:42:00,49.2,49.2,29.90,South,180,2.9,2.9,100,0.06,,---,0.16,VWS V14.00,2013-05-05 06:42:00,
2013-05-05 02:47:00,49.2,49.2,29.90,SW,225,2.4,2.9,100,0.06,,---,0.16,VWS V14.00,2013-05-05 06:47:00,
2013-05-05 02:52:00,49.2,49.2,29.90,South,180,0.0,0.0,100,0.08,,---,0.19,VWS V14.00,2013-05-05 06:52:00,
2013-05-05 02:57:00,49.2,49.2,29.90,SW,225,0.0,0.0,100,0.08,,---,0.19,VWS V14.00,2013-05-05 06:57:00,
2013-05-05 03:02:00,49.2,49.2,29.90,WSW,248,6.7,6.7,100,0.08,,---,0.19,VWS V14.00,2013-05-05 07:02:00,
2013-05-05 03:07:00,49.2,49.2,29.90,WNW,292,0.0,6.7,100,0.08,,---,0.19,VWS V14.00,2013-05-05 07:07:00,
2013-05-05 03:12:00,49.2,49.2,29.90,SSW,202,0.0,0.0,100,0.08,,---,0.20,VWS V14.00,2013-05-05 07:12:00,
2013-05-05 03:17:00,49.2,49.2,29.90,SSE,158,1.1,1.1,100,0.12,,---,0.24,VWS V14.00,2013-05-05 07:17:00,
2013-05-05 03:22:00,49.2,49.2,29.90,WSW,248,0.8,0.8,100,0.12,,---,0.24,VWS V14.00,2013-05-05 07:22:00,
2013-05-05 03:27:00,49.2,49.2,29.90,SE,135,6.0,6.0,100,0.14,,---,0.26,VWS V14.00,2013-05-05 07:27:00,
2013-05-05 03:32:00,49.2,49.2,29.90,SE,135,3.3,3.3,100,0.12,,---,0.26,VWS V14.00,2013-05-05 07:32:00,
2013-05-05 03:37:00,49.1,49.1,29.90,SW,225,0.0,3.3,100,0.14,,---,0.28,VWS V14.00,2013-05-05 07:37:00,
2013-05-05 03:42:00,49.1,49.1,29.90,WSW,248,0.0,0.0,100,0.15,,---,0.31,VWS V14.00,2013-05-05 07:42:00,
2013-05-05 03:47:00,49.1,49.1,29.90,SW,225,0.0,1.3,100,0.17,,---,0.33,VWS V14.00,2013-05-05 07:47:00,
2013-05-05 03:52:00,49.1,49.1,29.90,East,90,0.0,0.0,100,0.19,,---,0.35,VWS V14.00,2013-05-05 07:52:00,
2013-05-05 03:57:00,49.1,49.1,29.90,SE,135,1.1,1.1,100,0.20,,---,0.37,VWS V14.00,2013-05-05 07:57:00,
2013-05-05 04:02:00,49.1,49.1,29.90,SE,135,2.4,2.4,100,0.20,,---,0.39,VWS V14.00,2013-05-05 08:02:00,
2013-05-05 04:07:00,49.1,49.1,29.89,SSE,158,0.0,2.4,100,0.20,,---,0.39,VWS V14.00,2013-05-05 08:07:00,
2013-05-05 04:12:00,49.1,49.1,29.90,SSE,158,1.5,1.5,100,0.20,,---,0.41,VWS V14.00,2013-05-05 08:12:00,
2013-05-05 04:17:00,48.9,48.9,29.90,South,180,2.9,2.9,100,0.22,,---,0.43,VWS V14.00,2013-05-05 08:17:00,
2013-05-05 04:22:00,48.9,48.9,29.90,SW,225,0.0,0.0,100,0.20,,---,0.45,VWS V14.00,2013-05-05 08:22:00,
2013-05-05 04:28:00,49.1,49.1,29.90,NE,45,0.6,2.2,100,0.22,,---,0.47,VWS V14.00,2013-05-05 08:28:00,
2013-05-05 04:33:00,48.9,48.9,29.90,WSW,248,0.0,0.0,100,0.20,,---,0.47,VWS V14.00,2013-05-05 08:33:00,
2013-05-05 04:38:00,48.9,48.9,29.90,SSW,202,1.1,1.1,100,0.22,,---,0.49,VWS V14.00,2013-05-05 08:38:00,
2013-05-05 04:43:00,48.9,48.9,29.90,SSW,202,0.0,0.0,100,0.22,,---,0.51,VWS V14.00,2013-05-05 08:43:00,
2013-05-05 04:48:00,48.9,48.9,29.87,West,270,0.0,0.0,100,0.25,,---,0.53,VWS V14.00,2013-05-05 08:48:00,
2013-05-05 04:53:00,48.9,48.9,29.87,NE,45,0.0,0.0,100,0.24,,---,0.57,VWS V14.00,2013-05-05 08:53:00,
2013-05-05 04:58:00,48.7,48.7,29.87,WSW,248,0.0,0.0,100,0.24,,---,0.57,VWS V14.00,2013-05-05 08:58:00,
2013-05-05 05:03:00,48.7,48.7,29.86,South,180,0.0,0.0,100,0.24,,---,0.61,VWS V14.00,2013-05-05 09:03:00,
2013-05-05 05:08:00,48.7,48.7,29.86,SW,225,0.0,1.7,100,0.24,,---,0.61,VWS V14.00,2013-05-05 09:08:00,
2013-05-05 05:13:00,48.7,48.7,29.86,WSW,248,2.0,2.0,100,0.20,,---,0.61,VWS V14.00,2013-05-05 09:13:00,
2013-05-05 05:18:00,48.7,48.7,29.86,ENE,68,0.0,5.8,100,0.20,,---,0.61,VWS V14.00,2013-05-05 09:18:00,
2013-05-05 05:23:00,48.7,48.7,29.87,SSW,202,0.0,0.8,100,0.16,,---,0.61,VWS V14.00,2013-05-05 09:23:00,
2013-05-05 05:28:00,48.7,48.7,29.86,SW,225,4.0,4.0,100,0.16,,---,0.61,VWS V14.00,2013-05-05 09:28:00,
2013-05-05 05:33:00,48.7,48.7,29.86,SW,225,0.0,0.0,100,0.14,,---,0.61,VWS V14.00,2013-05-05 09:33:00,
2013-05-05 05:38:00,48.7,48.7,29.86,ESE,112,0.0,0.0,100,0.14,,---,0.61,VWS V14.00,2013-05-05 09:38:00,
2013-05-05 05:43:00,48.7,48.7,29.86,ESE,112,0.0,2.4,100,0.10,,---,0.61,VWS V14.00,2013-05-05 09:43:00,
2013-05-05 05:48:00,48.7,48.7,29.86,SE,135,2.2,2.4,100,0.10,,---,0.61,VWS V14.00,2013-05-05 09:48:00,
2013-05-05 05:53:00,48.5,48.5,29.86,WSW,248,0.0,0.0,100,0.06,,---,0.61,VWS V14.00,2013-05-05 09:53:00,
2013-05-05 05:58:00,48.5,48.5,29.87,East,90,0.2,0.2,100,0.06,,---,0.61,VWS V14.00,2013-05-05 09:58:00,
2013-05-05 06:03:00,48.5,48.5,29.87,West,270,0.0,0.0,100,0.02,,---,0.63,VWS V14.00,2013-05-05 10:03:00,
2013-05-05 06:08:00,48.3,48.3,29.86,SE,135,1.1,6.9,100,0.02,,---,0.63,VWS V14.00,2013-05-05 10:08:00,
2013-05-05 06:13:00,48.3,48.3,29.86,North,0,0.0,0.0,100,0.04,,---,0.65,VWS V14.00,2013-05-05 10:13:00,
2013-05-05 06:18:00,48.2,48.2,29.86,SW,225,5.5,5.5,100,0.06,,---,0.67,VWS V14.00,2013-05-05 10:18:00,
2013-05-05 06:23:00,48.0,48.0,29.86,NE,45,0.6,0.6,100,0.06,,---,0.67,VWS V14.00,2013-05-05 10:23:00,
2013-05-05 06:28:00,48.0,48.0,29.85,SSW,202,0.0,0.6,100,0.06,,---,0.67,VWS V14.00,2013-05-05 10:28:00,
2013-05-05 06:33:00,47.8,47.8,29.85,SSE,158,1.7,2.6,100,0.06,,---,0.67,VWS V14.00,2013-05-05 10:33:00,
2013-05-05 06:38:00,47.8,47.8,29.86,NW,315,2.4,2.6,100,0.06,,---,0.67,VWS V14.00,2013-05-05 10:38:00,
2013-05-05 06:43:00,47.6,47.6,29.86,WNW,292,4.0,4.0,100,0.06,,---,0.67,VWS V14.00,2013-05-05 10:43:00,
2013-05-05 06:48:00,47.6,47.6,29.86,SW,225,0.0,6.0,100,0.08,,---,0.69,VWS V14.00,2013-05-05 10:48:00,
2013-05-05 06:54:00,47.4,47.4,29.87,WSW,248,0.0,3.1,100,0.08,,---,0.69,VWS V14.00,2013-05-05 10:54:00,
2013-05-05 06:59:00,47.3,47.3,29.87,ESE,112,0.0,3.1,100,0.08,,---,0.69,VWS V14.00,2013-05-05 10:59:00,
2013-05-05 07:04:00,47.1,47.1,29.89,South,180,0.0,0.0,100,0.10,,---,0.71,VWS V14.00,2013-05-05 11:04:00,
2013-05-05 07:09:00,47.1,47.1,29.89,SW,225,0.0,0.0,100,0.10,,---,0.71,VWS V14.00,2013-05-05 11:09:00,
2013-05-05 07:14:00,47.1,47.1,29.89,ENE,68,0.0,0.0,100,0.08,,---,0.73,VWS V14.00,2013-05-05 11:14:00,
2013-05-05 07:19:00,47.1,47.1,29.89,ENE,68,0.0,0.0,100,0.08,,---,0.73,VWS V14.00,2013-05-05 11:19:00,
2013-05-05 07:24:00,47.1,47.1,29.90,East,90,0.0,0.0,100,0.06,,---,0.73,VWS V14.00,2013-05-05 11:24:00,
2013-05-05 07:29:00,46.9,46.9,29.90,SW,225,0.0,1.5,100,0.08,,---,0.76,VWS V14.00,2013-05-05 11:29:00,
2013-05-05 07:34:00,46.9,46.9,29.90,SW,225,0.0,0.0,100,0.08,,---,0.76,VWS V14.00,2013-05-05 11:34:00,
2013-05-05 07:39:00,46.9,46.9,29.90,East,90,0.0,0.8,100,0.10,,---,0.78,VWS V14.00,2013-05-05 11:39:00,
2013-05-05 07:44:00,46.7,46.7,29.89,SW,225,0.0,0.0,100,0.12,,---,0.80,VWS V14.00,2013-05-05 11:44:00,
2013-05-05 07:49:00,46.7,46.7,29.90,East,90,0.0,3.3,100,0.14,,---,0.81,VWS V14.00,2013-05-05 11:49:00,
2013-05-05 07:54:00,46.7,46.7,29.90,NE,45,0.0,0.0,100,0.16,,---,0.85,VWS V14.00,2013-05-05 11:54:00,
2013-05-05 07:59:00,46.5,46.5,29.89,WNW,292,0.0,0.0,100,0.16,,---,0.85,VWS V14.00,2013-05-05 11:59:00,
2013-05-05 08:04:00,46.5,46.5,29.89,WNW,292,0.0,0.0,100,0.20,,---,0.90,VWS V14.00,2013-05-05 12:04:00,
2013-05-05 08:09:00,46.5,46.5,29.89,West,270,0.0,1.5,100,0.20,,---,0.90,VWS V14.00,2013-05-05 12:09:00,
2013-05-05 08:14:00,46.5,46.5,29.89,NE,45,0.0,0.0,100,0.19,,---,0.92,VWS V14.00,2013-05-05 12:14:00,
2013-05-05 08:19:00,46.5,46.5,29.89,NE,45,0.0,0.0,100,0.20,,---,0.94,VWS V14.00,2013-05-05 12:19:00,
2013-05-05 08:24:00,46.5,46.5,29.89,NNE,22,0.0,0.0,100,0.22,,---,0.96,VWS V14.00,2013-05-05 12:24:00,
2013-05-05 08:29:00,46.5,46.5,29.89,WSW,248,0.0,0.0,100,0.25,,---,0.98,VWS V14.00,2013-05-05 12:29:00,
2013-05-05 08:34:00,46.5,46.5,29.89,West,270,2.0,2.0,100,0.22,,---,0.98,VWS V14.00,2013-05-05 12:34:00,
2013-05-05 08:39:00,46.5,46.5,29.89,West,270,0.0,2.0,100,0.24,,---,1.00,VWS V14.00,2013-05-05 12:39:00,
2013-05-05 08:44:00,46.5,46.5,29.89,West,270,0.0,0.0,100,0.26,,---,1.04,VWS V14.00,2013-05-05 12:44:00,
2013-05-05 08:49:00,46.5,46.5,29.89,West,270,0.0,0.0,100,0.26,,---,1.04,VWS V14.00,2013-05-05 12:49:00,
2013-05-05 08:54:00,46.5,46.5,29.89,West,270,0.0,0.0,100,0.22,,---,1.06,VWS V14.00,2013-05-05 12:54:00,
2013-05-05 08:59:00,46.5,46.5,29.90,West,270,0.0,0.0,100,0.24,,---,1.08,VWS V14.00,2013-05-05 12:59:00,
2013-05-05 09:04:00,46.5,46.5,29.89,ESE,112,0.8,4.2,100,0.22,,---,1.10,VWS V14.00,2013-05-05 13:04:00,
2013-05-05 09:09:00,46.7,46.7,29.90,SW,225,1.3,4.2,100,0.22,,---,1.10,VWS V14.00,2013-05-05 13:09:00,
2013-05-05 09:15:00,46.7,46.7,29.89,SW,225,0.0,1.3,100,0.20,,---,1.12,VWS V14.00,2013-05-05 13:15:00,
2013-05-05 09:20:00,46.7,46.7,29.90,SSW,202,0.0,1.3,100,0.22,,---,1.14,VWS V14.00,2013-05-05 13:20:00,
2013-05-05 09:25:00,46.7,46.7,29.90,NE,45,0.0,0.0,100,0.20,,---,1.14,VWS V14.00,2013-05-05 13:25:00,
2013-05-05 09:30:00,46.9,46.9,29.90,SE,135,0.0,0.0,100,0.20,,---,1.14,VWS V14.00,2013-05-05 13:30:00,
2013-05-05 09:35:00,46.9,46.9,29.90,SE,135,0.0,0.0,100,0.18,,---,1.16,VWS V14.00,2013-05-05 13:35:00,
2013-05-05 09:40:00,46.9,46.9,29.90,South,180,0.0,0.0,100,0.20,,---,1.18,VWS V14.00,2013-05-05 13:40:00,
2013-05-05 09:45:00,47.1,47.1,29.90,SE,135,0.0,0.0,100,0.22,,---,1.22,VWS V14.00,2013-05-05 13:45:00,
2013-05-05 09:50:00,47.1,47.1,29.90,East,90,0.0,0.0,100,0.22,,---,1.22,VWS V14.00,2013-05-05 13:50:00,
2013-05-05 09:55:00,47.1,47.1,29.90,West,270,0.0,0.0,100,0.20,,---,1.24,VWS V14.00,2013-05-05 13:55:00,
2013-05-05 10:00:00,47.1,47.1,29.90,West,270,0.0,0.0,100,0.22,,---,1.26,VWS V14.00,2013-05-05 14:00:00,
2013-05-05 10:05:00,47.1,47.1,29.90,SW,225,0.0,0.0,100,0.20,,---,1.28,VWS V14.00,2013-05-05 14:05:00,
2013-05-05 10:10:00,47.1,47.1,29.89,SE,135,0.0,0.0,100,0.20,,---,1.28,VWS V14.00,2013-05-05 14:10:00,
2013-05-05 10:15:00,47.1,47.1,29.90,ESE,112,0.0,3.8,100,0.18,,---,1.30,VWS V14.00,2013-05-05 14:15:00,
2013-05-05 10:20:00,46.9,46.9,29.91,SE,135,0.0,3.8,100,0.22,,---,1.35,VWS V14.00,2013-05-05 14:20:00,
2013-05-05 10:25:00,46.9,46.9,29.90,SW,225,0.0,0.0,100,0.22,,---,1.37,VWS V14.00,2013-05-05 14:25:00,
2013-05-05 10:30:00,46.9,46.9,29.90,South,180,0.0,0.0,100,0.26,,---,1.41,VWS V14.00,2013-05-05 14:30:00,
2013-05-05 10:35:00,47.1,47.1,29.90,South,180,0.0,0.0,100,0.26,,---,1.41,VWS V14.00,2013-05-05 14:35:00,
2013-05-05 10:40:00,47.1,47.1,29.90,South,180,0.0,0.0,100,0.29,,---,1.43,VWS V14.00,2013-05-05 14:40:00,
2013-05-05 10:45:00,47.1,47.1,29.90,SW,225,5.8,5.8,100,0.29,,---,1.47,VWS V14.00,2013-05-05 14:45:00,
2013-05-05 10:50:00,47.1,47.1,29.90,ESE,112,0.0,5.8,100,0.31,,---,1.49,VWS V14.00,2013-05-05 14:50:00,
2013-05-05 10:55:00,47.1,47.1,29.90,WNW,292,0.0,0.0,100,0.28,,---,1.51,VWS V14.00,2013-05-05 14:55:00,
2013-05-05 11:00:00,47.1,47.1,29.90,ESE,112,0.0,0.0,100,0.26,,---,1.53,VWS V14.00,2013-05-05 15:00:00,
2013-05-05 11:05:00,47.3,47.3,29.90,SSE,158,0.0,0.0,100,0.29,,---,1.55,VWS V14.00,2013-05-05 15:05:00,
2013-05-05 11:10:00,47.4,47.4,29.90,SSE,158,0.0,0.0,100,0.31,,---,1.57,VWS V14.00,2013-05-05 15:10:00,
2013-05-05 11:15:00,47.4,47.4,29.90,SSE,158,0.0,5.5,100,0.27,,---,1.57,VWS V14.00,2013-05-05 15:15:00,
2013-05-05 11:20:00,47.4,47.4,29.89,East,90,0.0,0.0,100,0.24,,---,1.59,VWS V14.00,2013-05-05 15:20:00,
2013-05-05 11:25:00,47.4,47.4,29.89,NNE,22,0.0,0.0,100,0.26,,---,1.61,VWS V14.00,2013-05-05 15:25:00,
2013-05-05 11:30:00,47.3,47.3,29.90,WSW,248,0.0,0.0,100,0.24,,---,1.65,VWS V14.00,2013-05-05 15:30:00,
2013-05-05 11:35:00,47.3,47.3,29.89,SSW,202,0.0,0.0,100,0.27,,---,1.67,VWS V14.00,2013-05-05 15:35:00,
2013-05-05 11:40:00,47.3,47.3,29.89,South,180,0.0,0.0,100,0.26,,---,1.69,VWS V14.00,2013-05-05 15:40:00,
2013-05-05 11:45:00,47.1,47.1,29.89,SE,135,0.0,0.0,100,0.28,,---,1.71,VWS V14.00,2013-05-05 15:45:00,
2013-05-05 11:50:00,47.1,47.1,29.89,ESE,112,4.9,4.9,100,0.24,,---,1.73,VWS V14.00,2013-05-05 15:50:00,
2013-05-05 11:56:00,46.9,46.9,29.89,SSW,202,0.0,4.9,100,0.26,,---,1.75,VWS V14.00,2013-05-05 15:56:00,
2013-05-05 12:01:00,46.9,46.9,29.90,South,180,2.2,2.2,100,0.25,,---,1.78,VWS V14.00,2013-05-05 16:01:00,
2013-05-05 12:06:00,47.1,47.1,29.90,SSW,202,0.0,2.2,100,0.27,,---,1.80,VWS V14.00,2013-05-05 16:06:00,
2013-05-05 12:11:00,47.1,47.1,29.90,SSE,158,0.0,0.0,100,0.24,,---,1.81,VWS V14.00,2013-05-05 16:11:00,
2013-05-05 12:16:00,47.4,47.4,29.90,SSE,158,1.5,1.5,100,0.24,,---,1.81,VWS V14.00,2013-05-05 16:16:00,
2013-05-05 12:21:00,47.6,47.6,29.89,SE,135,0.0,0.0,100,0.24,,---,1.83,VWS V14.00,2013-05-05 16:21:00,
2013-05-05 12:26:00,48.0,48.0,29.90,SE,135,0.0,0.0,100,0.24,,---,1.83,VWS V14.00,2013-05-05 16:26:00,
2013-05-05 12:31:00,48.0,48.0,29.90,SE,135,0.0,0.0,100,0.20,,---,1.85,VWS V14.00,2013-05-05 16:31:00,
2013-05-05 12:36:00,48.0,48.0,29.89,ESE,112,0.0,0.8,100,0.22,,---,1.87,VWS V14.00,2013-05-05 16:36:00,
2013-05-05 12:41:00,48.0,48.0,29.90,SSW,202,0.0,0.0,100,0.18,,---,1.87,VWS V14.00,2013-05-05 16:41:00,
2013-05-05 12:46:00,48.0,48.0,29.90,South,180,0.0,0.0,100,0.20,,---,1.90,VWS V14.00,2013-05-05 16:46:00,
2013-05-05 12:51:00,48.0,48.0,29.90,South,180,0.0,0.0,100,0.17,,---,1.90,VWS V14.00,2013-05-05 16:51:00,
2013-05-05 12:56:00,48.0,48.0,29.90,ESE,112,0.0,0.0,100,0.19,,---,1.92,VWS V14.00,2013-05-05 16:56:00,
2013-05-05 13:01:00,48.2,48.2,29.90,SSE,158,0.0,0.0,100,0.16,,---,1.94,VWS V14.00,2013-05-05 17:01:00,
2013-05-05 13:06:00,48.5,48.5,29.89,West,270,0.0,0.0,100,0.18,,---,1.96,VWS V14.00,2013-05-05 17:06:00,
2013-05-05 13:11:00,48.7,48.7,29.88,WSW,248,0.0,0.0,100,0.14,,---,1.96,VWS V14.00,2013-05-05 17:11:00,
2013-05-05 13:16:00,48.9,48.9,29.88,SSW,202,0.0,0.0,100,0.14,,---,1.96,VWS V14.00,2013-05-05 17:16:00,
2013-05-05 13:21:00,49.1,49.1,29.87,East,90,2.0,2.0,100,0.12,,---,1.96,VWS V14.00,2013-05-05 17:21:00,
2013-05-05 13:26:00,49.2,49.2,29.87,SSE,158,0.0,2.0,100,0.12,,---,1.96,VWS V14.00,2013-05-05 17:26:00,
2013-05-05 13:31:00,49.6,49.6,29.87,SE,135,0.0,0.0,100,0.10,,---,1.96,VWS V14.00,2013-05-05 17:31:00,
2013-05-05 13:36:00,49.2,49.2,29.87,WSW,248,6.0,6.0,100,0.12,,---,1.98,VWS V14.00,2013-05-05 17:36:00,
2013-05-05 13:41:00,49.2,49.2,29.87,East,90,0.0,0.0,100,0.10,,---,1.98,VWS V14.00,2013-05-05 17:41:00,
2013-05-05 13:46:00,49.1,49.1,29.87,SE,135,0.0,0.0,100,0.13,,---,2.00,VWS V14.00,2013-05-05 17:46:00,
2013-05-05 13:51:00,48.9,48.9,29.87,SSE,158,0.0,0.0,100,0.10,,---,2.00,VWS V14.00,2013-05-05 17:51:00,
2013-05-05 13:56:00,48.9,48.9,29.86,ENE,68,0.0,0.0,100,0.10,,---,2.00,VWS V14.00,2013-05-05 17:56:00,
2013-05-05 14:01:00,48.7,48.7,29.86,SSW,202,0.0,0.0,100,0.06,,---,2.00,VWS V14.00,2013-05-05 18:01:00,
2013-05-05 14:06:00,48.7,48.7,29.86,ESE,112,0.0,2.4,100,0.08,,---,2.02,VWS V14.00,2013-05-05 18:06:00,
2013-05-05 14:11:00,48.7,48.7,29.86,East,90,3.1,3.1,100,0.08,,---,2.04,VWS V14.00,2013-05-05 18:11:00,
2013-05-05 14:16:00,48.7,48.7,29.86,SSW,202,8.2,8.2,100,0.08,,---,2.04,VWS V14.00,2013-05-05 18:16:00,
2013-05-05 14:21:00,48.7,48.7,29.86,WSW,248,0.0,0.0,100,0.10,,---,2.06,VWS V14.00,2013-05-05 18:21:00,
2013-05-05 14:26:00,48.9,48.9,29.86,SE,135,0.0,0.0,100,0.10,,---,2.06,VWS V14.00,2013-05-05 18:26:00,
2013-05-05 14:31:00,49.1,49.1,29.86,SW,225,0.0,0.0,100,0.12,,---,2.08,VWS V14.00,2013-05-05 18:31:00,
2013-05-05 14:36:00,49.1,49.1,29.86,WSW,248,1.1,1.1,100,0.12,,---,2.08,VWS V14.00,2013-05-05 18:36:00,
2013-05-05 14:41:00,49.1,49.1,29.86,ESE,112,0.0,0.0,100,0.10,,---,2.08,VWS V14.00,2013-05-05 18:41:00,
2013-05-05 14:46:00,48.9,48.9,29.85,ENE,68,0.0,1.7,100,0.10,,---,2.08,VWS V14.00,2013-05-05 18:46:00,
2013-05-05 14:52:00,48.9,48.9,29.86,SW,225,7.6,7.6,100,0.08,,---,2.08,VWS V14.00,2013-05-05 18:52:00,
2013-05-05 14:57:00,48.9,48.9,29.86,SE,135,0.0,7.6,100,0.10,,---,2.10,VWS V14.00,2013-05-05 18:57:00,
2013-05-05 15:02:00,48.9,48.9,29.87,East,90,0.0,0.0,100,0.10,,---,2.10,VWS V14.00,2013-05-05 19:02:00,
2013-05-05 15:07:00,49.1,49.1,29.87,ESE,112,0.0,0.0,100,0.10,,---,2.10,VWS V14.00,2013-05-05 19:07:00,
2013-05-05 15:12:00,49.1,49.1,29.86,SE,135,3.8,3.8,100,0.08,,---,2.12,VWS V14.00,2013-05-05 19:12:00,
2013-05-05 15:17:00,49.2,49.2,29.86,SE,135,1.7,3.8,100,0.08,,---,2.12,VWS V14.00,2013-05-05 19:17:00,
2013-05-05 15:22:00,49.8,49.8,29.86,ESE,112,0.0,0.0,100,0.06,,---,2.12,VWS V14.00,2013-05-05 19:22:00,
2013-05-05 15:27:00,50.1,50.1,29.85,ENE,68,0.0,0.0,100,0.06,,---,2.12,VWS V14.00,2013-05-05 19:27:00,
2013-05-05 15:32:00,50.7,50.7,29.86,WSW,248,0.0,1.7,100,0.06,,---,2.14,VWS V14.00,2013-05-05 19:32:00,
2013-05-05 15:37:00,51.2,51.2,29.85,ESE,112,2.4,2.4,100,0.06,,---,2.14,VWS V14.00,2013-05-05 19:37:00,
2013-05-05 15:42:00,51.6,51.6,29.85,SE,135,8.7,8.7,100,0.06,,---,2.14,VWS V14.00,2013-05-05 19:42:00,
2013-05-05 15:47:00,51.6,51.6,29.85,SSE,158,0.0,8.7,100,0.06,,---,2.14,VWS V14.00,2013-05-05 19:47:00,
2013-05-05 15:52:00,51.4,51.4,29.85,NNW,338,0.0,0.0,100,0.06,,---,2.14,VWS V14.00,2013-05-05 19:52:00,
2013-05-05 15:57:00,51.4,51.1,29.84,SSW,202,0.0,3.5,99,0.06,,---,2.14,VWS V14.00,2013-05-05 19:57:00,
2013-05-05 16:02:00,51.0,51.0,29.84,SE,135,0.0,0.0,100,0.04,,---,2.14,VWS V14.00,2013-05-05 20:02:00,
2013-05-05 16:07:00,50.7,50.7,29.83,ESE,112,4.4,4.4,100,0.04,,---,2.14,VWS V14.00,2013-05-05 20:07:00,
2013-05-05 16:12:00,50.7,50.7,29.83,SE,135,0.0,2.0,100,0.02,,---,2.14,VWS V14.00,2013-05-05 20:12:00,
2013-05-05 16:17:00,50.5,50.5,29.83,ESE,112,0.0,10.2,100,0.02,,---,2.14,VWS V14.00,2013-05-05 20:17:00,
2013-05-05 16:22:00,50.3,50.3,29.83,ENE,68,0.6,0.6,100,0.02,,---,2.14,VWS V14.00,2013-05-05 20:22:00,
2013-05-05 16:27:00,50.3,50.3,29.83,WSW,248,0.0,0.6,100,0.02,,---,2.14,VWS V14.00,2013-05-05 20:27:00,
2013-05-05 16:32:00,50.3,50.3,29.83,East,90,7.1,7.1,100,0.00,,---,2.14,VWS V14.00,2013-05-05 20:32:00,
2013-05-05 16:37:00,50.1,50.1,29.84,ESE,112,0.0,7.1,100,0.00,,---,2.14,VWS V14.00,2013-05-05 20:37:00,
2013-05-05 16:43:00,50.0,50.0,29.84,SSW,202,0.0,0.0,100,0.00,,---,2.14,VWS V14.00,2013-05-05 20:43:00,
2013-05-05 16:48:00,49.8,49.8,29.84,SSW,202,3.3,4.4,100,0.00,,---,2.14,VWS V14.00,2013-05-05 20:48:00,
2013-05-05 16:53:00,49.8,49.8,29.84,East,90,0.6,0.6,100,0.00,,---,2.14,VWS V14.00,2013-05-05 20:53:00,
2013-05-05 16:58:00,49.8,49.8,29.84,SW,225,0.6,0.6,100,0.00,,---,2.14,VWS V14.00,2013-05-05 20:58:00,
2013-05-05 17:03:00,49.8,49.8,29.83,West,270,0.0,2.6,100,0.00,,---,2.14,VWS V14.00,2013-05-05 21:03:00,
2013-05-05 17:08:00,49.8,49.8,29.83,South,180,1.3,6.2,100,0.00,,---,2.14,VWS V14.00,2013-05-05 21:08:00,
2013-05-05 17:13:00,49.8,49.8,29.83,East,90,0.0,0.0,100,0.02,,---,2.16,VWS V14.00,2013-05-05 21:13:00,
2013-05-05 17:18:00,49.8,49.8,29.83,SSE,158,2.4,8.0,100,0.02,,---,2.16,VWS V14.00,2013-05-05 21:18:00,
2013-05-05 17:23:00,49.8,49.8,29.83,SE,135,0.0,0.0,100,0.02,,---,2.16,VWS V14.00,2013-05-05 21:23:00,
2013-05-05 17:28:00,49.8,49.8,29.83,ESE,112,0.0,0.0,100,0.02,,---,2.16,VWS V14.00,2013-05-05 21:28:00,
2013-05-05 17:33:00,49.8,49.8,29.82,WSW,248,0.0,3.1,100,0.02,,---,2.16,VWS V14.00,2013-05-05 21:33:00,
2013-05-05 17:38:00,49.8,49.8,29.82,SW,225,0.6,3.1,100,0.02,,---,2.16,VWS V14.00,2013-05-05 21:38:00,
2013-05-05 17:43:00,49.8,49.8,29.83,SW,225,0.0,0.0,100,0.02,,---,2.16,VWS V14.00,2013-05-05 21:43:00,
2013-05-05 17:48:00,49.8,49.8,29.82,East,90,0.0,0.0,100,0.02,,---,2.16,VWS V14.00,2013-05-05 21:48:00,
2013-05-05 17:53:00,49.8,49.8,29.82,South,180,5.8,5.8,100,0.06,,---,2.20,VWS V14.00,2013-05-05 21:53:00,
2013-05-05 17:58:00,49.8,49.8,29.82,WSW,248,0.0,5.8,100,0.06,,---,2.20,VWS V14.00,2013-05-05 21:58:00,
2013-05-05 18:03:00,49.8,49.8,29.81,SW,225,0.0,0.0,100,0.06,,---,2.20,VWS V14.00,2013-05-05 22:03:00,
2013-05-05 18:08:00,49.6,49.6,29.81,WSW,248,4.6,4.6,100,0.06,,---,2.20,VWS V14.00,2013-05-05 22:08:00,
2013-05-05 18:13:00,49.8,49.8,29.82,WSW,248,0.0,0.0,100,0.06,,---,2.22,VWS V14.00,2013-05-05 22:13:00,
2013-05-05 18:18:00,49.6,49.6,29.82,WSW,248,0.0,0.0,100,0.06,,---,2.22,VWS V14.00,2013-05-05 22:18:00,
2013-05-05 18:24:00,49.8,49.8,29.82,SW,225,0.0,0.0,100,0.06,,---,2.22,VWS V14.00,2013-05-05 22:24:00,
2013-05-05 18:29:00,49.6,49.6,29.82,WSW,248,0.0,2.0,100,0.08,,---,2.24,VWS V14.00,2013-05-05 22:29:00,
2013-05-05 18:34:00,49.6,49.6,29.82,WSW,248,0.0,0.0,100,0.08,,---,2.24,VWS V14.00,2013-05-05 22:34:00,
2013-05-05 18:39:00,49.6,49.6,29.83,WSW,248,0.0,0.0,100,0.10,,---,2.26,VWS V14.00,2013-05-05 22:39:00,
2013-05-05 18:44:00,49.6,49.6,29.83,WSW,248,0.0,0.0,100,0.10,,---,2.26,VWS V14.00,2013-05-05 22:44:00,
2013-05-05 18:49:00,49.6,49.6,29.83,South,180,0.0,0.0,100,0.12,,---,2.28,VWS V14.00,2013-05-05 22:49:00,
2013-05-05 18:54:00,49.6,49.6,29.82,South,180,0.0,0.0,100,0.12,,---,2.30,VWS V14.00,2013-05-05 22:54:00,
2013-05-05 18:59:00,49.6,49.6,29.83,South,180,0.0,0.0,100,0.12,,---,2.30,VWS V14.00,2013-05-05 22:59:00,
2013-05-05 19:04:00,49.6,49.6,29.82,South,180,0.0,0.0,100,0.12,,---,2.32,VWS V14.00,2013-05-05 23:04:00,
2013-05-05 19:09:00,49.6,49.6,29.82,South,180,0.0,0.0,100,0.15,,---,2.35,VWS V14.00,2013-05-05 23:09:00,
2013-05-05 19:14:00,49.6,49.6,29.82,South,180,0.0,0.0,100,0.14,,---,2.37,VWS V14.00,2013-05-05 23:14:00,
2013-05-05 19:19:00,49.4,49.4,29.81,South,180,0.0,0.0,100,0.14,,---,2.37,VWS V14.00,2013-05-05 23:19:00,
2013-05-05 19:24:00,49.6,49.6,29.82,South,180,0.0,0.0,100,0.14,,---,2.37,VWS V14.00,2013-05-05 23:24:00,
2013-05-05 19:29:00,49.2,49.2,29.83,South,180,0.0,0.0,100,0.18,,---,2.41,VWS V14.00,2013-05-05 23:29:00,
2013-05-05 19:34:00,49.2,49.2,29.83,South,180,0.0,0.0,100,0.16,,---,2.41,VWS V14.00,2013-05-05 23:34:00,
2013-05-05 19:39:00,49.2,49.2,29.83,South,180,0.0,0.0,100,0.16,,---,2.41,VWS V14.00,2013-05-05 23:39:00,
2013-05-05 19:44:00,49.1,49.1,29.83,South,180,0.0,0.0,100,0.14,,---,2.41,VWS V14.00,2013-05-05 23:44:00,
2013-05-05 19:49:00,49.1,49.1,29.84,SW,225,0.0,0.0,100,0.16,,---,2.43,VWS V14.00,2013-05-05 23:49:00,
2013-05-05 19:54:00,48.9,48.9,29.83,SW,225,0.0,0.0,100,0.17,,---,2.45,VWS V14.00,2013-05-05 23:54:00,
2013-05-05 19:59:00,48.9,48.9,29.84,SW,225,0.0,0.0,100,0.17,,---,2.45,VWS V14.00,2013-05-05 23:59:00,
2013-05-05 20:04:00,48.7,48.7,29.84,SE,135,0.0,0.0,100,0.17,,---,2.47,VWS V14.00,2013-05-06 00:04:00,
2013-05-05 20:09:00,48.7,48.7,29.84,SE,135,0.0,0.0,100,0.20,,---,2.51,VWS V14.00,2013-05-06 00:09:00,
2013-05-05 20:14:00,48.7,48.7,29.84,SE,135,0.0,0.0,100,0.16,,---,2.53,VWS V14.00,2013-05-06 00:14:00,
2013-05-05 20:19:00,48.5,48.5,29.83,SE,135,0.0,0.0,100,0.18,,---,2.55,VWS V14.00,2013-05-06 00:19:00,
2013-05-05 20:24:00,48.5,48.5,29.83,SE,135,0.0,0.0,100,0.18,,---,2.55,VWS V14.00,2013-05-06 00:24:00,
2013-05-05 20:29:00,48.3,48.3,29.83,SE,135,0.0,0.0,100,0.20,,---,2.57,VWS V14.00,2013-05-06 00:29:00,
2013-05-05 20:34:00,48.3,48.3,29.83,SE,135,0.0,0.0,100,0.19,,---,2.59,VWS V14.00,2013-05-06 00:34:00,
2013-05-05 20:39:00,48.3,48.3,29.84,SE,135,0.0,0.0,100,0.20,,---,2.61,VWS V14.00,2013-05-06 00:39:00,
2013-05-05 20:44:00,48.3,48.3,29.83,SSE,158,0.0,0.0,100,0.24,,---,2.65,VWS V14.00,2013-05-06 00:44:00,
2013-05-05 20:49:00,48.3,48.3,29.83,SSE,158,0.0,0.0,100,0.29,,---,2.69,VWS V14.00,2013-05-06 00:49:00,
2013-05-05 20:54:00,48.3,48.3,29.83,SSE,158,0.0,0.0,100,0.29,,---,2.71,VWS V14.00,2013-05-06 00:54:00,
2013-05-05 20:59:00,48.3,48.3,29.83,SSE,158,0.0,0.0,100,0.33,,---,2.75,VWS V14.00,2013-05-06 00:59:00,
2013-05-05 21:04:00,48.3,48.3,29.83,SSE,158,0.0,0.0,100,0.32,,---,2.77,VWS V14.00,2013-05-06 01:04:00,
2013-05-05 21:09:00,48.3,48.3,29.82,SSE,158,0.0,0.0,100,0.37,,---,2.81,VWS V14.00,2013-05-06 01:09:00,
2013-05-05 21:15:00,48.3,48.3,29.82,SSE,158,0.0,0.0,100,0.29,,---,2.81,VWS V14.00,2013-05-06 01:15:00,
2013-05-05 21:20:00,48.3,48.3,29.82,SSE,158,0.0,0.0,100,0.31,,---,2.83,VWS V14.00,2013-05-06 01:20:00,
2013-05-05 21:25:00,48.3,48.3,29.82,SSE,158,0.0,0.0,100,0.29,,---,2.83,VWS V14.00,2013-05-06 01:25:00,
2013-05-05 21:30:00,48.3,48.3,29.82,SSE,158,0.0,0.0,100,0.31,,---,2.85,VWS V14.00,2013-05-06 01:30:00,
2013-05-05 21:35:00,48.3,48.3,29.82,SSE,158,0.0,0.0,100,0.28,,---,2.85,VWS V14.00,2013-05-06 01:35:00,
2013-05-05 21:40:00,48.3,48.3,29.81,SSE,158,0.0,0.0,100,0.30,,---,2.87,VWS V14.00,2013-05-06 01:40:00,
2013-05-05 21:45:00,48.3,48.3,29.82,SSE,158,0.0,0.0,100,0.26,,---,2.87,VWS V14.00,2013-05-06 01:45:00,
2013-05-05 21:50:00,48.5,48.5,29.82,SSE,158,0.0,0.0,100,0.28,,---,2.89,VWS V14.00,2013-05-06 01:50:00,
2013-05-05 21:55:00,48.5,48.5,29.81,SSE,158,0.0,0.0,100,0.22,,---,2.92,VWS V14.00,2013-05-06 01:55:00,
2013-05-05 22:00:00,48.5,48.5,29.81,SE,135,0.0,0.0,100,0.22,,---,2.92,VWS V14.00,2013-05-06 02:00:00,
2013-05-05 22:05:00,48.7,48.7,29.82,SE,135,0.0,0.0,100,0.19,,---,2.94,VWS V14.00,2013-05-06 02:05:00,
2013-05-05 22:10:00,48.7,48.7,29.81,SE,135,0.0,0.0,100,0.19,,---,2.94,VWS V14.00,2013-05-06 02:10:00,
2013-05-05 22:15:00,48.7,48.7,29.82,SE,135,0.0,0.0,100,0.14,,---,2.96,VWS V14.00,2013-05-06 02:15:00,
2013-05-05 22:20:00,48.7,48.7,29.82,SE,135,0.0,0.0,100,0.14,,---,2.96,VWS V14.00,2013-05-06 02:20:00,
2013-05-05 22:25:00,48.7,48.7,29.82,SE,135,0.0,0.0,100,0.12,,---,2.96,VWS V14.00,2013-05-06 02:25:00,
2013-05-05 22:30:00,48.9,48.9,29.81,SE,135,0.0,0.0,100,0.14,,---,2.98,VWS V14.00,2013-05-06 02:30:00,
2013-05-05 22:35:00,48.9,48.9,29.81,SE,135,0.0,0.0,100,0.12,,---,2.98,VWS V14.00,2013-05-06 02:35:00,
2013-05-05 22:40:00,48.9,48.9,29.81,SE,135,0.0,0.0,100,0.12,,---,2.98,VWS V14.00,2013-05-06 02:40:00,
2013-05-05 22:45:00,48.9,48.9,29.82,SE,135,0.0,0.0,100,0.12,,---,3.00,VWS V14.00,2013-05-06 02:45:00,
2013-05-05 22:50:00,48.9,48.9,29.82,SE,135,0.0,0.0,100,0.12,,---,3.00,VWS V14.00,2013-05-06 02:50:00,
2013-05-05 22:55:00,49.1,49.1,29.82,SE,135,0.0,0.0,100,0.10,,---,3.00,VWS V14.00,2013-05-06 02:55:00,
2013-05-05 23:00:00,49.1,49.1,29.82,SE,135,0.0,0.0,100,0.10,,---,3.00,VWS V14.00,2013-05-06 03:00:00,
2013-05-05 23:05:00,49.1,49.1,29.82,SE,135,0.0,0.0,100,0.08,,---,3.00,VWS V14.00,2013-05-06 03:05:00,
2013-05-05 23:10:00,49.1,49.1,29.81,SE,135,0.0,0.0,100,0.08,,---,3.00,VWS V14.00,2013-05-06 03:10:00,
2013-05-05 23:15:00,49.1,49.1,29.82,SE,135,0.0,0.0,100,0.04,,---,3.00,VWS V14.00,2013-05-06 03:15:00,
2013-05-05 23:20:00,49.2,49.2,29.81,SE,135,0.0,0.0,100,0.04,,---,3.00,VWS V14.00,2013-05-06 03:20:00,
2013-05-05 23:25:00,49.2,49.2,29.81,SE,135,0.0,0.0,100,0.04,,---,3.00,VWS V14.00,2013-05-06 03:25:00,
2013-05-05 23:30:00,49.2,49.2,29.81,SE,135,0.0,0.0,100,0.04,,---,3.02,VWS V14.00,2013-05-06 03:30:00,
2013-05-05 23:35:00,49.2,49.2,29.81,SE,135,0.0,0.0,100,0.04,,---,3.02,VWS V14.00,2013-05-06 03:35:00,
2013-05-05 23:40:00,49.2,49.2,29.81,SE,135,0.0,0.0,100,0.04,,---,3.02,VWS V14.00,2013-05-06 03:40:00,
2013-05-05 23:45:00,49.2,49.2,29.81,SE,135,0.0,0.0,100,0.04,,---,3.02,VWS V14.00,2013-05-06 03:45:00,
2013-05-05 23:51:00,49.2,49.2,29.81,SE,135,0.0,0.0,100,0.02,,---,3.02,VWS V14.00,2013-05-06 03:51:00,
2013-05-05 23:56:00,49.4,49.4,29.81,SE,135,0.0,0.0,100,0.02,,---,3.02,VWS V14.00,2013-05-06 03:56:00,